• Processing (Info)

  • MPEC 2020-V36 : 2020 VW

    The following Minor Planet Electronic Circular may be linked-to from your own Web pages, but must not otherwise be redistributed electronically.

    A form allowing access to any MPEC is at the bottom of this page.


    Read MPEC 2020-V35 Read MPEC 2020-V37


    M.P.E.C. 2020-V36                              Issued 2020 November 6, 15:42 UT
    
         The Minor Planet Electronic Circulars contain information on unusual
             minor planets and routine data on comets.  They are published
        on behalf of Division F of the International Astronomical Union by the
              Minor Planet Center, Smithsonian Astrophysical Observatory,
                              Cambridge, MA 02138, U.S.A.
    
                 Prepared using the Tamkin Foundation Computer Network
    
                                  MPC@CFA.HARVARD.EDU
                URL https://www.minorplanetcenter.net/    ISSN 1523-6714
    
                                     2020 VW                                 
    
    
    Observations:
         K20V00W* C2020 11 05.16944300 54 30.49 +02 57 09.3          20.26GVEV036G96
         K20V00W  C2020 11 05.17457400 54 30.60 +02 56 38.0          20.22GVEV036G96
         K20V00W  C2020 11 05.17967300 54 30.73 +02 56 06.8          20.74GVEV036G96
         K20V00W  C2020 11 05.18477200 54 30.85 +02 55 36.2          20.44GVEV036G96
         K20V00W KC2020 11 05.33958300 54 34.99 +02 40 40.1          20.66GVEV036I52
         K20V00W KC2020 11 05.34210200 54 35.15 +02 40 25.5          20.83GVEV036I52
         K20V00W KC2020 11 05.34462200 54 35.32 +02 40 11.2          20.35GVEV036I52
         K20V00W |C2020 11 06.06875 00 56 55.03 +01 54 52.6          21.4 VuEV036807
         K20V00W |C2020 11 06.07502 00 56 54.87 +01 54 30.1          21.5 VuEV036807
         K20V00W |C2020 11 06.08100 00 56 54.77 +01 54 08.4          21.4 VuEV036807
    
    Observer details:
    807 Cerro Tololo Observatory, La Serena.  Observers T. Linder, R. Holmes.
        0.61-m f/6.5 astrograph + CCD.
    G96 Mt. Lemmon Survey.  Observer G. J. Leonard.  Measurers E. J. Christensen,
        G. A. Farneth, D. C. Fuls, A. R. Gibbs, A. D. Grauer, H. Groeller, R. A.
        Kowalski, S. M. Larson, G. J. Leonard, T. A. Pruyne, D. Rankin, R. L.
        Seaman, F. C. Shelly, K. W. Wierzchos.  1.5-m reflector + 10K CCD.
    I52 Steward Observatory, Mt. Lemmon Station.  Observer D. Rankin.  Measurers
        E. J. Christensen, G. A. Farneth, D. C. Fuls, A. R. Gibbs, A. D. Grauer,
        H. Groeller, R. A. Kowalski, S. M. Larson, G. J. Leonard, T. A. Pruyne, D.
        Rankin, R. L. Seaman, F. C. Shelly, K. W. Wierzchos.  1.0-m reflector +
        CCD.
    
    Orbital elements:
    2020 VW                                                  Earth MOID = 0.0014 AU
    Epoch 2020 Dec. 17.0 TT = JDT 2459200.5                 Pike                    
    M 160.99793              (2000.0)            P               Q                  
    n   1.27602536     Peri.   41.39841     -0.12121148     +0.99199959             
    a   0.8418406      Node   221.67531     -0.92410485     -0.12574877             
    e   0.3465227      Incl.    3.04144     -0.36240586     -0.01113859             
    P   0.77           H   28.47          G   0.15           U   7                  
    Residuals in seconds of arc
    201105 G96  0.0-  0.1+    201105 I52  0.1-  0.6+    201106 807  0.3-  0.1+
    201105 G96  0.2-  0.1+    201105 I52  0.1-  0.1-    201106 807  0.5+  0.1-
    201105 G96  0.0+  0.2-    201105 I52  0.0+  0.4-
    201105 G96  0.3+  0.0+    201106 807  0.2-  0.0+
    
    Ephemeris:
    2020 VW                  a,e,i = 0.84, 0.35, 3                   q = 0.5501
    Date    TT    R. A. (2000) Decl.     Delta      r    Elong.  Phase     V
    2020 10 07    13 05 04.7 -00 43 15   0.1585  0.8420     5.9   173.0
    ...
    2020 10 22    13 03 59.4 +00 51 46   0.06456 0.9333    16.0   162.9    34.5
    ...
    2020 10 30    13 08 47.7 +03 56 53   0.01905 0.9757    24.6   154.9    29.3
    ...
    2020 11 05    00 53 41.2 +03 20 30   0.01481 1.0044   150.8    28.8    20.6
    2020 11 06    00 56 39.9 +01 55 21   0.02041 1.0089   149.8    29.6    21.3
    2020 11 07    00 58 24.3 +01 07 16   0.02601 1.0133   148.8    30.4    21.9
    ...
    2020 11 13    01 02 49.9 -00 23 00   0.05995 1.0381   143.0    35.0    23.9
    ...
    2020 11 21    01 07 00.2 -00 27 50   0.1062  1.0668   136.0    40.1    25.3
    ...
    2020 12 06    01 18 03.1 +00 41 39   0.1960  1.1068   124.0    47.6    26.9
    
    M. P. C. Staff               (C) Copyright 2020 MPC           M.P.E.C. 2020-V36
    


    Read MPEC 2020-V35 Read MPEC 2020-V37


    MPEC number:

    Enter an MPEC number in one of the following forms:

    • 1997-B01 (the full form)
    • J97B01 (the packed version of the full form)
    • B01 (the abbreviated form)